Location: Unspecified
(59.5191°N, 0.0000°E)
Time: 00:52:42
(UTC+00:00)

VELOX 1 - Visible Passes

Search period start: 05 April 2026 00:00
Search period end: 15 April 2026 00:00
Orbit: 570 x 581 km, 98.3° (Epoch: 29 March)

Date Brightness Start Highest point End Pass type
(mag) Time Alt. Az. Time Alt. Az. Time Alt. Az.
5 Apr ? 01:06:20 10° N 01:09:35 23° NW 01:10:30 21° WNW visible
5 Apr ? 22:00:09 10° NE 22:01:39 14° ENE 22:01:39 14° ENE visible
5 Apr ? 23:34:08 10° NNE 23:37:54 70° NE 23:37:54 70° NE visible
6 Apr ? 01:09:52 10° N 01:13:03 22° NW 01:14:08 20° WNW visible
6 Apr ? 22:03:31 10° NE 22:05:17 14° ENE 22:05:17 14° ENE visible
6 Apr ? 23:37:37 10° NNE 23:41:31 77° ENE 23:41:31 77° ENE visible
7 Apr ? 01:13:24 10° N 01:16:30 21° NW 01:17:46 18° WNW visible
7 Apr ? 22:06:53 10° NE 22:08:54 15° ENE 22:08:54 15° ENE visible
7 Apr ? 23:41:06 10° NNE 23:45:08 85° ENE 23:45:08 85° ENE visible
8 Apr ? 01:16:54 10° N 01:19:56 20° NW 01:21:22 17° W visible
8 Apr ? 22:10:14 10° NE 22:12:29 16° E 22:12:29 16° E visible
8 Apr ? 23:44:33 10° NNE 23:48:40 89° W 23:48:43 87° SSW visible
9 Apr ? 01:20:24 10° N 01:23:21 20° NW 01:24:58 16° W visible
9 Apr ? 22:13:34 10° NE 22:16:04 17° E 22:16:04 17° E visible
9 Apr ? 23:47:59 10° NNE 23:52:06 85° WNW 23:52:18 80° SW visible
10 Apr ? 01:23:53 10° N 01:26:45 19° NW 01:28:32 15° W visible
10 Apr ? 22:16:55 10° NE 22:19:37 18° E 22:19:37 18° E visible
10 Apr ? 23:51:25 10° NNE 23:55:31 80° WNW 23:55:51 72° SW visible
11 Apr ? 01:27:21 10° N 01:30:08 18° NW 01:32:05 13° W visible
11 Apr ? 22:20:15 10° NE 22:23:09 19° E 22:23:09 19° E visible
11 Apr ? 23:54:49 10° NNE 23:58:55 76° WNW 23:59:23 65° SW visible
12 Apr ? 01:30:48 10° N 01:33:30 17° NW 01:35:38 12° W visible
12 Apr ? 22:23:34 10° NE 22:26:40 20° E 22:26:41 20° E visible
12 Apr ? 23:58:12 10° NNE 00:02:17 72° WNW 00:02:55 59° SW visible
13 Apr ? 01:34:14 10° N 01:36:51 17° NW 01:39:09 11° W visible
13 Apr ? 22:26:52 10° NE 22:30:04 22° E 22:30:11 21° E visible
14 Apr ? 00:01:35 10° NNE 00:05:39 68° WNW 00:06:25 54° SW visible
14 Apr ? 01:37:40 10° N 01:40:11 16° NW 01:42:38 10° W visible
14 Apr ? 22:30:10 10° NE 22:33:27 23° E 22:33:40 23° E visible
